Regional Weather Roundup
Issued by NWS

Home | Current Version | Previous Version | Graphics & Text | Print | Product List | Glossary On
Versions: 1 2 3 4 5 6 7 8 9 10 11 12 13 14 15 16 17 18 19 20 21 22 23 24 25 26 27 28 29 30 31 32 33 34 35 36 37 38 39 40 41 42 43 44 45 46 47 48 49 50
000
ASUS45 KSLC 270610
RWRUT

UTAH REGIONAL WEATHER ROUNDUP
NATIONAL WEATHER SERVICE SALT LAKE CITY UT
1100 PM MST FRI DEC 26 2014

UTZ001>011-023>025-270700-

NORTHERN UTAH

CITY           SKY/WX    TMP DP  RH WIND       PRES   REMARKS
BRIGHAM CITY   PTCLDY    14   9  80 CALM      30.25R
HILL AFB       NOT AVBL
LOGAN          CLOUDY    12   8  84 CALM      30.24R
OGDEN          MOCLDY    17  10  74 S7        30.22R WCI   8
PROVO AIRPORT  CLOUDY    19  12  73 NE3       30.22R
SALT LAKE CITY PTCLDY    21  16  81 NW3       30.23R
VERNAL         FLURRIES  22  10  60 NE5       30.13R WCI  16
WENDOVER       CLOUDY    28  12  50 NW18G24   30.25R WCI  16
HEBER CITY     CLOUDY    14  12  92 CALM      30.16R
WEST JORDAN    PTCLDY    21  16  79 W7        30.22R WCI  13

$$

UTZ012>022-026-027-270700-

SOUTHERN/CENTRAL UTAH

CITY           SKY/WX    TMP DP  RH WIND       PRES   REMARKS
BLANDING       CLEAR     21  14  75 NW3       30.13R
BRYCE CANYON   PTCLDY     1  -4  79 N10       30.07R WCI -15
CEDAR CITY     CLOUDY    16  10  77 N7        30.15R WCI   6
DELTA          CLOUDY    20  17  84 CALM      30.21R
MILFORD        CLOUDY    21  13  71 N3        30.19R
MOAB/CYNLANDS  CLOUDY    23  14  68 W3        30.12R
PRICE          PTCLDY    21   6  52 NW13      30.09R WCI   9
ST GEORGE      PTCLDY    34  10  37 SW7       30.22S WCI  28
KANAB          CLEAR     27   9  46 N8        30.18R WCI  18

$$

REGIONAL REPORTS     COLORADO/ARIZONA

CITY           SKY/WX    TMP DP  RH WIND       PRES   REMARKS
CRAIG, CO      LGT SNOW   9   7  92 NW6       30.08R FOG     WCI  -1
GRAND JUNCTION MOCLDY    10   5  80 CALM      30.12R
RIFLE          PTCLDY    12   4  70 S3        30.11R
MONTROSE       LGT SNOW  20  17  88 SE5       30.10R FOG     WCI  13
CORTEZ         CLEAR     16  11  80 CALM      30.05R
PAGE, AZ       CLOUDY    32   6  33 W8        30.11R WCI  25
GRAND CANYON   CLEAR     10   6  84 NE3       30.06S
KINGMAN        CLEAR     29  13  51 NE3       30.16R
FLAGSTAFF      CLEAR     11   5  77 CALM      30.03R

$$

REGIONAL REPORTS    NEVADA/IDAHO/WYOMING

CITY           SKY/WX    TMP DP  RH WIND       PRES   REMARKS
LAS VEGAS, NV  CLEAR     43   8  23 NW12G21   30.20R
ELY            CLOUDY    17  14  88 N7        30.19R WCI   8
ELKO           CLEAR     23  14  68 CALM      30.25R
POCATELLO, ID  CLOUDY    20  17  88 SW15      30.23R WCI   6
BURLEY         CLOUDY    25  19  78 W10       30.24R WCI  15
EVANSTON, WY   MOCLDY     6  -1  73 SW7       30.08R WCI  -6
ROCK SPRINGS   LGT SNOW  10   8  92 S5        30.07R FOG     WCI   2

$$



USA.gov is the U.S. government's official web portal to all federal, state and local government web resources and services.